Terug naar catalogus

NIMBUS 2 DEB

ActiefSSO
NORAD 59977·DEBRIS·🇺🇸 United States

Gelanceerd May 15, 1966 vanaf Vandenberg Space Force Base

Loading…

Volgende Passages (komende 24 uur)

TLE

VersSource: Space-Track

Epoch: Sep 14, 2026, 11:19 UTC

1 59977U 66040CG  26257.47170381  .00000872  00000-0  16438-2 0  9997
2 59977 100.3136  74.2915 0051280 354.1709   5.8816 13.41195470470224

Volg NIMBUS 2 DEB in realtime met AllMySat

Download on the App Store